Total_Precipitation_Accumulation
1.80 2.27 2.78 3.26 3.96 4.93 5.95 6.40 6.27 5.70 5.19 4.82 4.50 4.26 3.91 3.60 3.47 3.16 2.82 2.80 2.78 2.82 3.13 2.86 3.21 3.21 3.30 3.28 3.21 3.35 3.31 3.05 3.19 3.75 3.76 3.32 3.03 3.01 2.87 2.72 2.83 2.64 2.59
1.87 2.37 2.95 3.33 3.68 4.27 5.10 5.50 5.22 4.65 4.05 3.84 3.75 3.73 3.65 3.23 3.00 2.93 2.92 2.61 2.63 2.71 2.79 2.97 2.82 2.88 3.11 3.01 2.94 3.27 3.26 2.92 3.00 3.59 3.88 3.71 3.70 3.39 2.67 2.65 2.77 2.72 2.76
1.66 2.39 2.94 3.21 3.49 3.77 3.85 4.00 3.94 3.53 3.24 3.16 3.15 3.17 3.36 3.11 2.82 2.73 2.69 2.47 2.38 2.38 2.53 2.62 2.74 2.86 2.77 2.90 2.97 3.05 3.19 3.12 2.97 3.06 3.67 3.68 3.55 3.40 3.05 2.66 2.58 2.75 2.99
1.51 2.24 2.56 2.70 2.76 2.85 2.74 2.83 2.94 2.88 2.87 2.80 2.81 2.65 2.51 2.50 2.41 2.41 2.38 2.38 2.27 2.22 2.16 2.31 2.56 2.70 2.64 2.90 2.64 2.79 3.08 3.19 2.94 2.96 3.05 3.07 3.19 3.38 3.21 2.80 2.47 2.49 2.61
1.21 1.53 1.66 1.82 1.89 1.95 2.00 2.24 2.61 2.79 2.72 2.63 2.75 2.72 2.38 2.24 2.18 2.23 2.37 2.35 2.26 2.16 2.05 2.15 2.38 2.53 2.59 2.70 2.73 3.03 2.96 2.88 2.86 2.88 2.99 3.10 3.07 2.92 2.97 2.99 2.70 2.51 2.33
0.90 1.08 1.19 1.30 1.37 1.41 1.53 1.78 2.21 2.48 2.46 2.45 2.47 2.40 2.33 2.29 2.23 2.18 2.22 2.19 2.16 2.24 2.33 2.31 2.38 2.36 2.41 2.51 2.62 2.84 2.85 2.80 2.86 2.75 2.67 2.94 3.09 3.07 3.12 2.97 2.70 2.53 2.29
0.81 0.94 1.14 1.22 1.17 1.12 1.24 1.42 1.72 1.88 1.88 1.99 2.17 2.25 2.31 2.27 2.12 2.06 2.03 1.99 1.83 1.93 2.22 2.41 2.49 2.49 2.48 2.43 2.54 2.60 2.61 2.70 2.84 2.75 2.62 2.63 2.68 2.89 3.10 3.11 2.73 2.52 2.28
0.70 0.77 0.92 0.95 0.95 1.00 1.07 1.21 1.37 1.46 1.55 1.65 1.87 2.05 2.08 2.06 2.02 2.16 2.05 1.89 1.68 1.64 1.86 2.14 2.26 2.25 2.22 2.24 2.69 2.47 2.43 2.62 2.70 2.61 2.92 2.78 2.55 2.74 2.93 3.07 3.13 2.93 2.78
0.56 0.61 0.72 0.78 0.81 0.97 1.06 1.10 1.21 1.31 1.41 1.50 1.77 1.95 1.96 1.91 1.94 2.03 1.95 1.77 1.79 1.68 1.76 1.81 2.09 2.21 2.19 2.25 2.49 2.42 2.38 2.54 2.54 2.68 2.93 2.87 2.70 2.70 2.73 2.95 3.26 3.49 3.32
0.53 0.59 0.64 0.73 0.72 0.74 0.90 1.00 1.07 1.25 1.42 1.50 1.56 1.60 1.76 1.74 1.72 1.67 1.64 1.71 1.77 1.73 1.80 1.89 1.91 2.00 2.15 2.28 2.43 2.29 2.24 2.39 2.47 2.61 2.75 2.74 2.65 2.70 2.64 2.77 3.07 3.37 3.41
0.62 0.62 0.69 0.71 0.66 0.65 0.79 0.92 1.02 1.15 1.26 1.29 1.34 1.45 1.55 1.55 1.52 1.51 1.48 1.59 1.64 1.68 1.70 1.77 1.85 1.86 1.97 2.25 2.55 2.45 2.44 2.48 2.49 2.48 2.64 2.71 2.88 2.93 2.82 2.83 2.87 3.04 3.24
0.80 0.78 0.81 0.78 0.75 0.75 0.79 0.89 0.89 0.95 1.03 1.11 1.20 1.27 1.40 1.43 1.44 1.47 1.59 1.68 1.68 1.64 1.56 1.64 1.71 1.65 1.77 2.06 2.36 2.51 2.62 2.74 2.68 2.70 2.86 2.88 2.91 2.87 2.78 2.82 2.81 2.84 3.11
0.82 0.97 1.00 0.86 0.81 0.81 0.83 0.84 0.83 0.87 0.93 1.02 1.08 1.16 1.31 1.48 1.57 1.62 1.65 1.75 1.79 1.75 1.75 1.78 1.75 1.86 1.98 2.04 2.19 2.35 2.42 2.53 2.60 2.73 2.78 2.74 2.87 2.77 2.75 2.63 2.61 2.66 2.83
0.81 0.97 1.08 0.87 0.77 0.75 0.77 0.79 0.79 0.78 0.83 1.00 1.15 1.26 1.47 1.66 1.73 1.74 1.77 1.78 1.81 1.81 1.85 1.88 1.91 2.00 2.08 2.03 2.09 2.24 2.33 2.40 2.47 2.60 2.69 2.74 2.75 2.77 2.91 2.76 2.74 2.88 3.01
0.81 0.85 0.95 0.91 0.83 0.80 0.81 0.84 0.90 0.92 0.95 1.17 1.37 1.58 1.77 1.81 1.83 1.87 1.87 1.91 1.94 1.84 1.95 2.02 2.00 2.00 1.91 1.82 2.08 2.21 2.21 2.41 2.45 2.44 2.42 2.50 2.74 2.79 2.82 2.60 2.73 2.95 2.96
0.85 0.97 1.03 1.00 0.99 0.95 1.00 1.08 1.14 1.23 1.37 1.54 1.70 1.78 1.84 1.87 1.80 1.78 1.79 1.94 2.00 2.05 2.18 2.21 2.23 2.15 1.88 2.09 2.14 2.16 2.28 2.40 2.40 2.40 2.33 2.25 2.26 2.34 2.46 2.46 2.48 2.62 2.74
1.00 1.10 1.17 1.16 1.20 1.20 1.29 1.43 1.42 1.49 1.66 1.81 1.97 1.95 1.89 1.91 1.88 1.92 1.96 1.97 2.10 2.24 2.28 2.25 2.27 2.23 2.24 2.23 1.98 1.91 1.91 2.01 2.05 2.05 2.05 1.84 1.75 2.07 2.13 2.30 2.28 2.15 2.19
1.03 1.16 1.25 1.26 1.23 1.29 1.41 1.64 1.74 1.75 1.87 1.97 2.05 2.12 2.13 2.20 2.27 2.37 2.39 2.44 2.50 2.56 2.50 2.42 2.44 2.48 2.43 2.44 2.10 1.98 1.86 1.85 1.83 1.80 1.77 1.81 1.80 1.85 2.03 2.12 2.08 1.98 1.93
1.16 1.32 1.33 1.30 1.32 1.50 1.58 1.64 1.76 1.79 1.95 2.13 2.28 2.36 2.41 2.45 2.49 2.52 2.65 2.81 2.96 3.03 2.94 2.88 2.90 2.88 2.93 2.94 2.55 2.38 2.09 1.99 1.88 1.89 1.95 1.98 1.83 1.89 1.94 1.97 1.92 1.87 1.89
1.30 1.45 1.50 1.46 1.55 1.82 1.88 1.96 2.03 2.09 2.16 2.27 2.43 2.62 2.74 2.79 2.78 2.85 3.02 3.21 3.40 3.43 3.43 3.43 3.43 3.36 3.34 3.31 2.88 2.69 2.39 2.31 2.23 2.24 2.11 2.02 1.82 1.76 1.71 1.71 1.75 1.66 1.65
1.28 1.44 1.51 1.52 1.60 1.81 2.01 2.29 2.42 2.46 2.45 2.50 2.62 2.77 2.88 3.01 3.08 3.18 3.29 3.48 3.64 3.62 3.57 3.54 3.51 3.40 3.32 3.20 2.84 2.65 2.43 2.44 2.45 2.32 2.19 2.04 1.89 1.69 1.63 1.57 1.56 1.59 1.68
1.33 1.41 1.54 1.62 1.72 1.84 2.10 2.37 2.55 2.69 2.76 2.75 2.89 2.94 2.95 2.86 2.86 3.12 3.34 3.57 3.80 3.76 3.70 3.73 3.59 3.42 3.29 3.01 2.78 2.57 2.42 2.49 2.53 2.44 2.31 2.17 2.03 1.77 1.68 1.53 1.51 1.59 1.57
1.31 1.35 1.44 1.57 1.66 1.74 1.95 2.35 2.51 2.61 2.70 2.79 2.83 2.94 2.97 2.98 3.05 3.26 3.44 3.64 3.76 3.71 3.60 3.59 3.49 3.30 3.11 2.97 2.71 2.47 2.39 2.43 2.38 2.45 2.55 2.35 2.17 1.94 1.78 1.75 1.74 1.63 1.51
1.25 1.33 1.43 1.57 1.65 1.57 1.70 1.92 2.14 2.30 2.39 2.45 2.48 2.47 2.58 2.74 2.98 3.29 3.38 3.43 3.48 3.52 3.50 3.38 3.25 3.20 3.18 3.11 2.85 2.53 2.28 2.25 2.28 2.33 2.43 2.32 2.16 1.93 1.78 1.81 1.75 1.62 1.59
1.27 1.32 1.49 1.49 1.53 1.60 1.59 1.64 1.70 1.90 2.08 2.12 2.15 2.25 2.36 2.54 2.75 2.98 3.14 3.09 3.12 3.33 3.23 3.00 2.82 2.72 2.65 2.73 2.63 2.35 2.19 2.14 2.23 2.30 2.35 2.29 2.18 2.03 1.89 1.81 1.83 1.84 1.80
1.32 1.33 1.38 1.35 1.35 1.47 1.56 1.58 1.68 1.85 1.92 1.87 1.90 1.94 2.00 2.18 2.35 2.50 2.63 2.65 2.42 2.49 2.41 2.27 2.14 2.02 1.98 1.99 1.86 1.71 1.66 1.74 1.92 2.02 2.17 2.21 2.13 2.04 1.98 1.94 1.93 1.90 1.83